Regional Weather Roundup
Issued by NWS Northern Indiana

Home | Current Version | Previous Version | Text Only | Print | Product List | Glossary On
Versions: 1 2 3 4 5 6 7 8 9 10 11 12 13 14 15 16 17 18 19 20 21 22 23 24 25 26 27 28 29 30 31 32 33 34 35 36 37 38 39 40 41 42 43 44 45 46 47 48 49 50
000
ASUS43 KIWX 230810
RWRIWX

KIWX WEATHER ROUNDUP
NATIONAL WEATHER SERVICE NORTHERN INDIANA
400 AM EDT MON OCT 23 2017

NOTE: "FAIR" INDICATES FEW OR NO CLOUDS BELOW 12,000 FEET WITH NO
SIGNIFICANT WEATHER AND/OR OBSTRUCTIONS TO VISIBILITY.

* THESE STATIONS ARE NOT UNDER NWS QUALITY CONTROL. THEY ALSO MAY NOT
  REPORT WEATHER SUCH AS PRECIPITATION OR FOG.

INZ001>027-230900-
NORTHERN INDIANA

CITY           SKY/WX    TMP DP  RH WIND       PRES   REMARKS
GARY*          RAIN      56  55  96 N12       29.94F
VALPARAISO     RAIN      57  56  96 NE6       29.92F FOG
MICHIGAN CITY* RAIN      55  55 100 CALM      29.94S
LAPORTE*       HVY RAIN  55  55  98 N6        29.93F
KNOX*          CLOUDY    55  54  94 N5        29.91F
SOUTH BEND     LGT RAIN  56  56 100 N5        29.93F
GOSHEN         CLOUDY    61  58  90 CALM      29.91F
MONTICELLO*    DRIZZLE   56  55  95 CALM      29.89F
LOGANSPORT*    CLOUDY    59  55  88 N3        29.91S
WARSAW*        CLOUDY    63  54  72 CALM      29.92F
AUBURN*        CLOUDY    63  50  63 CALM      29.94F
FORT WAYNE     CLOUDY    64  51  62 SE7       29.93F
HUNTINGTON*    CLOUDY    65  52  63 SE6       29.92F
PERU/GRISSOM   DRIZZLE   64  55  72 SE5       29.90F

$$
INZ028>050-230900-
CENTRAL INDIANA

CITY           SKY/WX    TMP DP  RH WIND       PRES   REMARKS
LAFAYETTE      LGT RAIN  57  57 100 NE5       29.89F
KOKOMO*        CLOUDY    64  55  72 SE7       29.92F
MUNCIE*        CLOUDY    68  52  56 S8        29.92F
INDIANAPOLIS   LGT RAIN  63  59  87 E6        29.89F

$$
MIZ043>046-050>051-056>058-064>065-071>073-077>080-230900-
SOUTHWEST LOWER MICHIGAN

CITY           SKY/WX    TMP DP  RH WIND       PRES   REMARKS
BATTLE CREEK   CLOUDY    63  61  93 N3        29.93F
BENTON HARBOR  HVY RAIN  57  54  89 CALM      29.93F FOG
COLDWATER*     CLOUDY    64  50  60 S6        29.93F
HILLSDALE*     CLOUDY    63  48  59 S6        29.94F
HOLLAND        LGT RAIN  54  53  97 N3        29.94F
GRAND RAPIDS   LGT RAIN  56  55  97 N3        29.93F
KALAMAZOO      CLOUDY    60  56  86 N5        29.93F
STURGIS*       CLOUDY    64  54  70 CALM      29.92F
THREE RIVERS*  CLOUDY    62  59  92 CALM      29.93F

$$
OHZ001>008-015>018-024>025-230900-
NORTHWEST OHIO

CITY           SKY/WX    TMP DP  RH WIND       PRES   REMARKS
WAUSEON*       FAIR      61  50  67 S8        29.95F
DEFIANCE       CLOUDY    65  48  54 SE5       29.94F
FINDLAY        MOCLDY    64  48  56 SE10      29.97F
TOLEDO EXPRESS MOCLDY    63  51  65 VRB3      29.96F
TOLEDO METCALF CLOUDY    63  51  65 SE8       29.97F
LIMA           CLOUDY    65  50  58 SE13      29.97F

$$
AND FOR LAKE MICHIGAN COASTAL AND OPEN LAKE BUOY OBSERVATIONS

STATION/POSITION TEMP    WIND        PRES    VSBY  WAVE
                 AIR SEA DIR/SP/G                  HT/PER
                 (F)     (DEG/KT/KT) (MB)    (MI)  (FT/S)
CALUMET HARBOR    53     340/ 10/ 16 1013.3F
MICHIGAN CITY     56      30/ 10/ 10   N/A
BURNS HARBOR      57      20/ 12/ 14 1013.9F
SAINT JOSEPH      56      30/  3/  7 1014.2
SOUTH LAKE BUOY   54 60  360/ 16/ 17 1014.1F         2/ 5
4 MI NW BRIDGMAN  57 59   70/  8/ 10 1013.7          3/ 6
MICHIGAN CITY     56 58   20/ 10/ 14   N/A           4/ 6

$$
&&



USA.gov is the U.S. government's official web portal to all federal, state and local government web resources and services.